Regional Weather Roundup
Issued by NWS

Home | Current Version | Previous Version | Text Only | Print | Product List | Glossary Off
Versions: 1 2 3 4 5 6 7 8 9 10 11 12 13 14 15 16 17 18 19 20 21 22 23 24 25 26 27 28 29 30 31 32 33 34 35 36 37 38 39 40 41 42 43 44 45 46 47 48 49 50

000
ASUS43 KFSD 181710
RWRSD

WEATHER ROUNDUP FOR SOUTH DAKOTA
NATIONAL WEATHER SERVICE SIOUX FALLS SD
1100 AM CST THU DEC 18 2014

NOTE: "FAIR" INDICATES FEW OR NO CLOUDS BELOW 12,000 FEET WITH NO
SIGNIFICANT WEATHER AND/OR OBSTRUCTIONS TO VISIBILITY.


SDZ001>005-009-010-012>017-181800-
NORTHWEST AND NORTH CENTRAL SOUTH DAKOTA

CITY           SKY/WX    TMP DP  RH WIND       PRES   REMARKS
BUFFALO          N/A     26  23  88 CALM      29.91R
FAITH            N/A     26  21  81 S16       30.02S WCI  14
MOBRIDGE       CLOUDY    23  21  92 S9        30.07S FOG     WCI  13
$$

SDZ012>016-024>037-041>051-057-063-072>074-181800-
SOUTHWEST AND SOUTH CENTRAL SOUTH DAKOTA

CITY           SKY/WX    TMP DP  RH WIND       PRES   REMARKS
RAPID CTY ARPT MOSUNNY   24  21  88 CALM      30.01S
PIERRE         CLOUDY    24  22  91 SE6       30.11S WCI  17
CUSTER         SUNNY     33  20  58 SW5       29.97R WCI  29
ELLSWORTH AFB  SUNNY     27  26  96 W2        30.00R
PHILIP         CLOUDY    25  21  85 S8        30.08S WCI  16
PINE RIDGE     SUNNY     21  16  81 CALM      30.04S
SPEARFISH      FAIR      32  27  80 W5        29.99S WCI  27
WINNER         CLOUDY    27  22  81 S8        30.12R WCI  19
$$

SDZ004>011-016>023-039-040-181800-
NORTHEAST SOUTH DAKOTA

CITY           SKY/WX    TMP DP  RH WIND       PRES   REMARKS
ABERDEEN       CLOUDY    22  17  81 S10       30.19S WCI  11
WATERTOWN      CLOUDY    20  16  84 S10       30.17F WCI   9
SISSETON         N/A     17  13  84 S9        30.22F WCI   6
$$

SDZ017-020-022-023-036>040-048>070-181800-
SOUTHEAST SOUTH DAKOTA

CITY           SKY/WX    TMP DP  RH WIND       PRES   REMARKS
SIOUX FALLS    CLOUDY    23  18  81 S8        30.22S WCI  14
HURON          CLOUDY    22  18  85 SE10      30.19F WCI  11
CHAMBERLAIN    CLOUDY    23  20  90 SE8       30.15R WCI  14
MITCHELL         N/A     24  21  88 MISG      30.21S
YANKTON        PTSUNNY   27  21  80 SE8       30.23F WCI  18
$$

ABBREVIATIONS USED IN REMARKS
   TC - TEMPERATURE IN CELSIUS
  WCI - WIND CHILL INDEX
   HX - HEAT INDEX
  VSB - VISIBILITY




USA.gov is the U.S. government's official web portal to all federal, state and local government web resources and services.